STARLINK-36111, 66950

Orbit data source: Space-Track

STARLINK-36111, 66950 is a payload satellite owned by SpaceX/Seattle (US) in LEO that was launched on Sun, 07 Dec 2025 UTC via an FALCON 9 launch vehicle from the Air Force Western Test Range (AFWTR). Payload-class satellites include a variety of spacecraft equipped with specific instruments for various scientific and technological missions. These include communications satellites like Starlink; space stations such as the ISS; scientific satellites like the Hubble; Earth observation satellites from companies like Planet Labs, Umbra, and HawkEye 360; GPS; miniature CubeSats for education and research; and military/defense satellites.

Loading next visibility...
Identifier
66950, 2025-286AB
Orbit
LEO
Country
Flag of USUS
Related business
Manufacturer
SpaceX/Seattle
Mission
Operational Commercial Communications
Bus & Motor
STARLINK V2MO, Unknown motor
Mass
575 kg wet, ~530 kg dry
Launch date (UTC)
2025-12-07 (6 months ago)
Launch vehicle
FALCON 9
Launch site
Air Force Western Test Range (AFWTR)
Object type
Payload
Rocket body
Debris
Shape & HBR
Box + 2 Pan, 17.7 m
Radar Cross Section
36.964 m², Large (>1 m²)

Expand to show TLE details & history
Last TLE update: 9 hours ago

TLE from 9 hours ago
0 STARLINK-36111
1 66950U 25286AB  26171.47170470  .00017702  00000-0  53420-3 0  9990
2 66950  53.1578 239.5829 0001406  83.1240 276.9922 15.34377536 31177
Epoch: 2026-06-20T11:19Z
TLE epoch observation values (Epoch: 2026-06-20T11:19:15.286Z)
Latitude
-0.00004°
Longitude
161.08333°
Altitude
463.554 km
Speed
7.636 km/s
True Right ascension
15h 58m 19s
True Declination
0° 00' 00"
Sunlit
Object was in full shadow at epoch
Visualization orbit readout
Latitude
Unknown
Longitude
Unknown
Altitude
Unknown
Speed
Unknown
Apparent Right ascension
Unknown
Apparent Declination
Unknown
Sunlit
N/A
Visualization observer readout
Local Sidereal Time
07:14:26
Azimuth
Unknown
Elevation
Unknown
Doppler factor
Unknown
Orbital elements
Apogee altitude
463.989 km
Perigee altitude
462.065 km
Semi-major axis
6,841.164 km
Eccentricity
0.00014
Inclination
53.1578°
RAAN
239.5829°
Arg. of periapsis
83.124°
True anomaly
276.97621°
Mean anomaly
276.9922°
Eccentric anomaly
276.9842°
Mean motion
3.83573 °/min
Orbital period
93.85 mins
BSTAR
0.0005342
Loading maneuver chart data...
Computing Atmospheric mass density...
Loading historical data...
Loading historical data...
Loading historical data...
Loading historical data...
Loading historical data...
Loading historical data...
Loading historical data...

Documentation

Showing up to 5 results
|